Date String (YYYY-MM-DD hh:mm:ss) UTC,Instrument flags,Ambient pressure (hPa),Sample flow (lpm),Bypass flow (lpm),Sample temperature (°C),Ambient temperature (°C),ASC tube jacket temperature (°C),LED temperature (°C),Box temperature (°C),Sample RH (%),Span deviation,Mass concentration (μg/m³),Mass concentration (μg/m³),Mass concentration (μg/m³)
DateTimeUTC,F1_M11,P_M11,Q1_M11,Q2_M11,T1_M11,T2_M11,T3_M11,T4_M11,T5_M11,U1_M11,ZSPAN_M11,X0_M11,X2_M11,X1_M11
2023-01-13 10:00:00,,0831.5,5.00,0.00,21.5,19.7,00.0,30.5,23.0,12.2,0001.2,0019.17,0013.11,0012.31
2023-01-13 10:01:00,,0831.5,5.00,0.00,21.5,19.6,00.0,30.5,23.0,12.2,0001.3,0020.23,0013.26,0012.45
2023-01-13 10:02:00,,0831.5,5.00,0.00,21.5,19.5,00.0,30.5,22.9,12.2,0001.1,0020.20,0013.30,0012.54
2023-01-13 10:03:00,,0831.5,5.00,0.00,21.4,19.5,00.0,30.4,22.9,12.2,0001.3,0020.56,0013.56,0012.74
2023-01-13 10:04:00,,0831.5,5.00,0.00,21.4,19.4,00.0,30.4,22.8,12.1,0001.5,0020.77,0013.74,0012.91
2023-01-13 10:05:00,,0831.4,4.99,0.00,21.3,19.3,00.0,30.4,22.8,12.1,0001.0,0020.80,0013.82,0012.99
2023-01-13 10:06:00,,0831.4,4.99,0.00,21.3,19.3,00.0,30.4,22.7,12.1,0000.5,0020.78,0013.83,0012.99
2023-01-13 10:07:00,,0831.4,5.00,0.00,21.3,19.5,00.0,30.3,22.7,12.1,0000.6,0019.86,0013.72,0012.91
2023-01-13 10:08:00,,0831.4,5.00,0.00,21.3,20.8,00.0,30.3,23.0,12.0,0000.5,0019.68,0013.64,0012.85
2023-01-13 10:09:00,,0831.4,4.99,0.00,21.5,22.1,00.0,30.3,23.4,11.9,0000.2,0019.67,0013.49,0012.74
2023-01-13 10:10:00,,0831.4,4.99,0.00,21.6,22.3,00.0,30.3,23.5,11.9,0000.2,0019.86,0013.39,0012.67
2023-01-13 10:11:00,,0831.3,5.00,0.00,21.6,21.6,00.0,30.4,23.4,11.9,0000.6,0019.33,0013.27,0012.57
2023-01-13 10:12:00,,0831.3,5.00,0.00,21.6,21.1,00.0,30.4,23.3,12.0,0000.9,0018.37,0013.14,0012.45
2023-01-13 10:13:00,,0831.2,5.00,0.00,21.6,20.7,00.0,30.4,23.2,11.9,0001.3,0018.47,0013.09,0012.39
2023-01-13 10:14:00,,0831.2,5.01,0.00,21.6,20.4,00.0,30.4,23.1,11.8,0001.2,0018.37,0013.05,0012.37
2023-01-13 10:15:00,,0831.2,5.00,0.00,21.5,20.1,00.0,30.4,23.1,11.8,0001.1,0018.43,0012.98,0012.30
2023-01-13 10:16:00,,0831.2,5.00,0.00,21.5,19.9,00.0,30.4,23.0,11.7,0001.6,0018.36,0012.91,0012.24
2023-01-13 10:17:00,,0831.2,5.00,0.00,21.5,19.7,00.0,30.4,23.0,11.8,0001.9,0018.17,0012.86,0012.22
2023-01-13 10:18:00,,0831.2,5.00,0.00,21.5,19.7,00.0,30.4,23.0,11.8,0001.6,0018.23,0012.86,0012.18
2023-01-13 10:19:00,,0831.2,5.02,0.00,21.4,19.6,00.0,30.4,22.9,11.8,0001.3,0018.25,0012.81,0012.10
2023-01-13 10:20:00,,0831.2,5.02,0.00,21.4,19.5,00.0,30.4,22.8,11.7,0001.8,0018.27,0012.74,0011.99
2023-01-13 10:21:00,,0831.2,4.99,0.00,21.3,19.5,00.0,30.4,22.8,11.6,0001.4,0018.61,0012.50,0011.80
2023-01-13 10:22:00,,0831.2,5.00,0.00,21.3,19.4,00.0,30.4,22.8,11.6,0001.0,0018.31,0012.28,0011.58
2023-01-13 10:23:00,,0831.2,5.01,0.00,21.3,19.7,00.0,30.3,22.9,11.5,0000.4,0017.85,0012.07,0011.34
2023-01-13 10:24:00,,0831.2,5.00,0.00,21.4,21.0,00.0,30.3,23.2,11.3,0000.0,0017.38,0011.78,0011.07
2023-01-13 10:25:00,,0831.2,4.99,0.00,21.6,22.0,00.0,30.3,23.5,11.2,-000.1,0016.88,0011.41,0010.71
2023-01-13 10:26:00,,0831.2,4.99,0.00,21.6,21.8,00.0,30.3,23.5,11.2,-000.0,0016.75,0011.09,0010.43
2023-01-13 10:27:00,,0831.2,5.01,0.00,21.6,21.2,00.0,30.4,23.4,11.1,0000.2,0016.67,0010.81,0010.12
2023-01-13 10:28:00,,0831.2,5.00,0.00,21.6,20.8,00.0,30.4,23.3,11.2,0000.7,0016.40,0010.55,0009.87
2023-01-13 10:29:00,,0831.1,5.00,0.00,21.6,20.5,00.0,30.4,23.2,11.2,0001.2,0016.05,0010.34,0009.69
2023-01-13 10:30:00,,0831.0,5.00,0.00,21.6,20.2,00.0,30.4,23.2,11.1,0001.6,0015.67,0010.09,0009.50
2023-01-13 10:31:00,,0831.0,5.01,0.00,21.5,20.0,00.0,30.4,23.1,11.2,0001.7,0015.13,0009.87,0009.31
2023-01-13 10:32:00,,0831.0,4.99,0.00,21.5,19.8,00.0,30.4,23.0,11.3,0001.9,0014.47,0009.82,0009.24
2023-01-13 10:33:00,,0831.0,5.01,0.00,21.4,19.6,00.0,30.4,22.9,11.3,0001.7,0014.64,0009.85,0009.25
2023-01-13 10:34:00,,0831.1,5.01,0.00,21.4,19.5,00.0,30.4,22.9,11.2,0001.5,0014.59,0009.87,0009.27
2023-01-13 10:35:00,,0831.1,5.00,0.00,21.4,19.4,00.0,30.4,22.8,11.2,0000.7,0014.64,0009.93,0009.35
2023-01-13 10:36:00,,0831.0,5.01,0.00,21.3,19.4,00.0,30.4,22.8,11.1,0001.0,0014.68,0009.89,0009.30
2023-01-13 10:37:00,,0831.0,5.00,0.00,21.3,19.5,00.0,30.3,22.8,10.8,0001.0,0014.51,0009.67,0009.07
2023-01-13 10:38:00,,0831.0,5.00,0.00,21.4,20.6,00.0,30.3,23.1,10.7,0000.8,0013.94,0009.37,0008.80
2023-01-13 10:39:00,,0831.1,5.01,0.00,21.5,21.9,00.0,30.3,23.4,10.6,0000.1,0013.64,0009.07,0008.53
2023-01-13 10:40:00,,0831.0,5.00,0.00,21.6,22.7,00.0,30.3,23.7,10.4,-000.5,0013.24,0008.70,0008.19
2023-01-13 10:41:00,,0831.1,4.99,0.00,21.8,22.4,00.0,30.4,23.8,10.2,-000.6,0012.86,0008.34,0007.83
2023-01-13 10:42:00,,0831.0,4.99,0.00,21.8,21.9,00.0,30.4,23.7,10.2,-000.7,0012.42,0007.95,0007.46
2023-01-13 10:43:00,,0831.0,5.01,0.00,21.8,21.4,00.0,30.5,23.6,10.2,-000.3,0011.48,0007.45,0007.02
2023-01-13 10:44:00,,0831.0,5.00,0.00,21.8,21.0,00.0,30.5,23.5,10.2,-000.0,0010.80,0006.97,0006.56
2023-01-13 10:45:00,,0831.0,5.00,0.00,21.8,20.6,00.0,30.5,23.4,10.9,-000.1,0010.51,0006.73,0006.32
2023-01-13 10:46:00,,0831.0,5.00,0.00,21.7,20.4,00.0,30.5,23.3,10.9,0001.4,0010.41,0006.62,0006.22
2023-01-13 10:47:00,,0831.0,4.99,0.00,21.7,20.2,00.0,30.5,23.3,10.8,0000.2,0010.26,0006.53,0006.15
2023-01-13 10:48:00,,0831.0,5.00,0.00,21.7,20.1,00.0,30.6,23.3,10.9,0000.6,0010.17,0006.52,0006.15
2023-01-13 10:49:00,,0831.0,5.00,0.00,21.7,20.1,00.0,30.6,23.2,11.0,0001.0,0010.76,0006.83,0006.42
2023-01-13 10:50:00,,0830.9,5.01,0.00,21.7,20.0,00.0,30.6,23.2,11.0,0001.5,0011.35,0007.28,0006.83
2023-01-13 10:51:00,,0830.9,5.00,0.00,21.6,19.9,00.0,30.5,23.2,11.0,0001.8,0011.88,0007.74,0007.26
2023-01-13 10:52:00,,0830.9,4.99,0.00,21.6,19.8,00.0,30.5,23.1,10.9,0001.5,0012.80,0008.19,0007.69
2023-01-13 10:53:00,,0831.0,5.00,0.00,21.6,19.6,00.0,30.5,23.0,10.9,0000.4,0013.57,0008.65,0008.12
2023-01-13 10:54:00,,0830.9,5.01,0.00,21.5,19.6,00.0,30.5,22.9,10.9,0000.2,0014.16,0009.09,0008.54
2023-01-13 10:55:00,,0830.9,5.00,0.00,21.5,19.5,00.0,30.5,22.9,10.9,-000.1,0014.89,0009.53,0008.94
2023-01-13 10:56:00,,0830.9,5.00,0.00,21.4,19.4,00.0,30.5,22.8,10.9,0000.2,0015.03,0009.72,0009.14
2023-01-13 10:57:00,,0830.9,5.01,0.00,21.4,20.1,00.0,30.4,23.0,10.9,0000.5,0015.25,0009.69,0009.13
2023-01-13 10:58:00,,0830.9,5.01,0.00,21.5,21.5,00.0,30.4,23.3,10.8,-000.0,0015.30,0009.69,0009.14
2023-01-13 10:59:00,,0831.0,5.01,0.00,21.7,22.5,00.0,30.4,23.7,10.8,-000.4,0015.26,0009.83,0009.28
